EDT,Max TemperatureF,Mean TemperatureF,Min TemperatureF,Max Dew PointF,MeanDew PointF,Min DewpointF,Max Humidity, Mean Humidity, Min Humidity, Max Sea Level PressureIn, Mean Sea Level PressureIn, Min Sea Level PressureIn, Max VisibilityMiles, Mean VisibilityMiles, Min VisibilityMiles, Max Wind SpeedMPH, Mean Wind SpeedMPH, Max Gust SpeedMPH,PrecipitationIn, CloudCover, Events, WindDirDegrees
2012-10-1,64,52,39,50,45,38,100,84,67,29.98,29.92,29.84,10,10,9,9,2,12,0.13,6,Fog-Rain,96
2012-10-2,69,61,53,66,60,51,93,93,93,29.88,29.84,29.80,10,7,2,10,5,13,0.02,7,Rain,93
2012-10-3,73,63,52,64,60,52,100,79,57,30.16,30.02,29.88,10,7,2,18,7,23,0.22,7,Rain,205
2012-10-4,74,64,53,54,52,50,93,70,46,30.19,30.15,30.10,10,10,10,20,8,25,0.00,5,,197
2012-10-5,70,60,50,58,55,48,93,77,61,30.09,30.02,29.94,10,9,3,16,8,20,0.15,7,Rain,266
2012-10-6,55,49,43,48,40,33,100,73,46,30.11,29.99,29.89,10,8,1,20,9,26,0.40,7,Rain,275
2012-10-7,46,42,37,40,37,35,100,86,71,30.18,30.11,30.07,10,9,2,17,5,22,0.17,7,Fog-Rain,238
2012-10-8,49,41,32,39,34,32,96,75,54,30.27,30.23,30.17,10,9,4,12,5,14,0.00,4,,182
2012-10-9,58,43,28,38,33,28,100,70,40,30.22,30.13,30.00,10,9,4,14,6,20,0.00,1,Fog,168
2012-10-10,54,48,42,45,38,28,89,71,52,30.17,29.97,29.89,10,9,1,21,11,35,0.01,7,Rain,237
2012-10-11,56,44,31,31,29,28,92,64,35,30.29,30.20,30.13,10,10,10,18,8,24,0.00,3,,221
2012-10-12,53,42,30,39,32,27,85,63,41,30.45,30.31,30.14,10,10,10,24,9,29,T,6,Rain,338
2012-10-13,63,46,29,48,33,24,78,60,41,30.42,30.26,30.02,10,10,8,15,9,23,0.12,5,Rain,150
2012-10-14,74,66,57,58,54,52,90,70,49,30.03,29.87,29.65,10,9,2,23,12,33,0.29,7,Rain,198
2012-10-15,67,57,47,57,46,41,83,75,66,29.89,29.77,29.60,10,10,10,26,12,38,0.02,8,Rain,262
2012-10-16,55,48,40,43,39,36,86,67,47,29.99,29.93,29.88,10,10,9,14,5,17,T,6,Rain,253
2012-10-17,70,58,45,46,41,37,76,58,40,29.90,29.83,29.73,10,10,10,15,9,20,0.00,5,,148
2012-10-18,63,54,44,47,43,38,92,72,51,29.82,29.70,29.62,10,10,2,32,10,49,0.02,6,Rain,154
2012-10-19,63,53,43,45,41,33,100,68,36,29.78,29.70,29.60,10,7,1,20,10,24,0.08,7,Fog-Rain,158
2012-10-20,53,49,45,43,41,39,92,78,63,29.93,29.75,29.67,10,10,7,22,10,26,0.02,7,Rain,220
2012-10-21,60,49,37,42,38,35,92,68,44,30.15,30.08,29.95,10,10,7,14,5,18,0.00,4,,251
2012-10-22,73,54,35,50,42,34,92,67,41,30.19,30.13,30.05,10,10,10,12,5,16,0.00,2,,181
2012-10-23,67,63,59,60,54,50,97,78,58,30.07,30.03,30.01,10,10,6,14,5,20,0.14,8,Fog-Rain-Thunderstorm,205
2012-10-24,76,66,56,57,54,51,93,70,46,30.12,30.08,30.03,10,9,3,13,6,17,0.01,5,Fog,190
2012-10-25,81,66,51,50,47,43,72,49,26,30.11,30.04,29.98,10,10,10,15,7,22,0.00,1,,172
2012-10-26,69,58,47,54,48,45,93,73,52,30.14,30.08,29.98,10,10,6,20,11,24,T,6,,340
2012-10-27,48,47,45,46,44,40,93,88,82,30.09,30.04,30.01,10,7,2,21,12,24,0.94,8,Rain,2
2012-10-28,45,43,40,41,39,38,93,88,83,30.06,29.99,29.90,10,6,1,20,14,29,0.70,8,Rain,4
2012-10-29,42,41,40,39,38,37,93,90,86,29.90,29.68,29.29,10,6,2,33,19,45,1.22,8,Rain,346
2012-10-30,49,45,40,47,41,37,100,88,76,29.36,29.20,29.08,10,7,2,36,10,46,0.80,8,Rain,21
2012-10-31,42,40,38,41,38,36,100,93,86,29.62,29.48,29.35,10,6,1,21,12,26,0.39,8,Rain,238